Weather History for Port Isabel, TX

Change the Weather History Date:

Tuesday, March 5, 2013

  Actual Average Record
Temperature  
Mean Temperature 66 °F -  
Max Temperature 78 °F - - ()
Min Temperature 54 °F - - ()
Cooling Degree Days 2    
Growing Degree Days 16 (Base 50)    
Moisture  
Dew Point 54 °F    
Average Humidity 61    
Maximum Humidity 87    
Minimum Humidity 41    
Precipitation  
Precipitation 0.00 in - - ()
Sea Level Pressure  
Sea Level Pressure 30.10 in    
Wind  
Wind Speed 15 mph (NNW)    
Max Wind Speed 31 mph    
Max Gust Speed 48 mph    
Visibility 8 miles    
Events Rain    
T = Trace of Precipitation, MM = Missing Value Source: NWS Daily Summary

Daily Weather History Graph

Daily Weather History Graph

Search for Another Location

Airport:

Trip Planner

Search our weather history database for the weather conditions in past years. The results will help you decide how hot, cold, wet, or windy it might be!

Date:

Astronomy

Mar. 05, 2013 Rise Set
Actual Time 6:48 AM CST 6:33 PM CST
Civil Twilight 6:25 AM CST 6:56 PM CST
Nautical Twilight 5:58 AM CST 7:23 PM CST
Astronomical Twilight 5:32 AM CST 7:49 PM CST
Moon 1:37 AM CST (3/5) 12:38 PM CST (3/5)
Length of Visible Light 12h 30m
Length of Day
11h 44m
Last Quarter, 40% of the Moon is Illuminated
Mar 5
Last Quarter
Mar 11
New
Mar 19
First Quarter
Mar 27
Full
Apr 2
Last Quarter

Hourly Weather History & Observations

Time (CST) Temp. Dew Point Humidity Pressure Visibility Wind Dir Wind Speed Gust Speed Precip Events Conditions
1:53 AM 68.0 °F 61.0 °F 78% 29.84 in 9.0 mi South 16.1 mph 24.2 mph N/A   Clear
3:53 AM 68.0 °F 62.1 °F 81% 29.84 in 8.0 mi South 13.8 mph 21.9 mph N/A   Clear
4:53 AM 68.0 °F 63.0 °F 84% 29.85 in 8.0 mi South 11.5 mph - N/A   Clear
5:53 AM 66.9 °F 63.0 °F 87% 29.87 in 7.0 mi South 12.7 mph - N/A   Clear
7:53 AM 69.1 °F 64.0 °F 84% 29.91 in 6.0 mi South 11.5 mph - N/A   Haze
8:53 AM 73.9 °F 64.0 °F 71% 29.94 in 7.0 mi South 13.8 mph 25.3 mph N/A   Partly Cloudy
9:11 AM 73.4 °F 64.4 °F 73% 30.04 in 7.0 mi West 11.5 mph 26.5 mph N/A   Scattered Clouds
9:23 AM 75.2 °F 64.4 °F 69% 30.04 in 7.0 mi West 6.9 mph - N/A   Mostly Cloudy
9:53 AM 77.0 °F 63.0 °F 62% 30.04 in 7.0 mi WSW 5.8 mph - N/A   Mostly Cloudy
10:17 AM 78.8 °F 62.6 °F 57% 30.06 in 7.0 mi NW 8.1 mph - N/A   Scattered Clouds
10:53 AM 73.9 °F 62.1 °F 66% 30.07 in 7.0 mi North 23.0 mph 26.5 mph N/A   Overcast
11:14 AM 73.4 °F 60.8 °F 65% 30.09 in 8.0 mi North 17.3 mph 27.6 mph 0.00 in Rain Light Rain
11:35 AM 73.4 °F 60.8 °F 65% 30.10 in 8.0 mi NNE 20.7 mph 31.1 mph 0.00 in Rain Light Rain
11:53 AM 75.0 °F 60.1 °F 60% 30.11 in 8.0 mi North 31.1 mph 48.3 mph 0.00 in Rain Light Rain
12:01 PM 66.2 °F 53.6 °F 64% 30.13 in 7.0 mi North 26.5 mph 48.3 mph 0.00 in Rain Light Rain
12:53 PM 66.0 °F 51.1 °F 59% 30.16 in 8.0 mi North 29.9 mph 39.1 mph 0.00 in Rain Light Rain
1:53 PM 64.0 °F 48.0 °F 56% 30.17 in 8.0 mi North 25.3 mph 38.0 mph 0.00 in Rain Light Rain
2:53 PM 66.9 °F 45.0 °F 45% 30.17 in 9.0 mi North 27.6 mph 34.5 mph 0.00 in Rain Light Rain
3:53 PM 68.0 °F 44.1 °F 42% 30.17 in 9.0 mi North 23.0 mph 31.1 mph 0.00 in Rain Light Rain
4:53 PM 70.0 °F 45.0 °F 41% 30.18 in 9.0 mi North 24.2 mph 31.1 mph 0.00 in Rain Light Rain
5:53 PM 68.0 °F 45.0 °F 43% 30.20 in 9.0 mi NNE 21.9 mph 27.6 mph 0.00 in Rain Light Rain
6:53 PM 64.9 °F 45.0 °F 48% 30.22 in 10.0 mi NNE 11.5 mph - 0.00 in   Clear
7:53 PM 64.0 °F 42.1 °F 45% 30.24 in 10.0 mi North 10.4 mph - N/A   Clear
8:53 PM 57.9 °F 39.9 °F 51% 30.27 in 10.0 mi North 5.8 mph - N/A   Clear
9:53 PM 57.9 °F 41.0 °F 53% 30.28 in 10.0 mi NNW 5.8 mph - N/A   Clear
10:53 PM 55.9 °F 36.0 °F 47% 30.29 in 9.0 mi NNW 6.9 mph - N/A   Clear
11:53 PM 54.0 °F 37.9 °F 55% 30.29 in 10.0 mi NNW 4.6 mph - N/A   Clear